Weather in Accra

Ghana     5°38′04″N   0°10′18″E
temp.,
°C
wind,
m/s
gust,
m/s
humid.,
%
clouds,
%
prec.,
mm/h
press.,
hPa
HPBL,
m
15 august, mon
mon1500:00+23wsw5128998 0.4 1012831
03:00+23wsw41189100 0.1 1011753
06:00+23wsw41188100 0.3 1012754
09:00+25sw6977100 0.2 1013892
12:00+25sw6877100 2.1 10121045
15:00+27sw786599 0.8 10091225
18:00+24sw61076100 0.9 1010787
21:00+23sw51083100 0.0 1013768
16 august, tue
tue1600:00+23sw4984100 0.2 1013732
03:00+23sw498597 0.1 1012690
06:00+23sw398598 0.1 1013644
09:00+25sw587384 0.0 1014968
12:00+28ssw676392 0.3 10131336
15:00+27ssw786174 0.2 10111291
18:00+25sw6967100 0.2 1012779
21:00+24sw497273 0.0 1014597
17 august, wed
wed1700:00+23wsw36797 0.0 1014355
03:00+21w248398 0.0 1013236
06:00+21w2384100 0.0 1014155
09:00+26wsw356046 0.0 1016986
12:00+30sw444554 0.0 10131691
15:00+30ssw5544100 0.0 10111687
18:00+26ssw46585 0.0 1012457
21:00+24sw35687 0.0 1015339
18 august, thu
thu1800:00+23wsw357669 0.0 1015351
03:00+22wsw358221 0.0 1014346
06:00+21wsw258799 0.0 1015267
09:00+25wsw446637 0.0 1016852
12:00+30sw445168 0.0 10131585
15:00+29ssw555510 0.0 10111104
18:00+26ssw466875 0.0 1012525
21:00+23sw4677100 0.0 1014443
19 august, fri
fri1900:00+23sw478240 0.0 1013509
03:00+22wsw3687100 0.0 1013407
06:00+22wsw368982 0.0 1014439
09:00+25sw5672100 0.0 1015883
12:00+26ssw5668100 0.1 10141091
15:00+26ssw5667100 0.0 10121096
18:00+24ssw567384 0.1 1013746
21:00+23ssw478299 0.0 1014505